Date String (YYYY-MM-DD hh:mm:ss) UTC,Instrument flags,Ambient pressure (hPa),Sample flow (lpm),Bypass flow (lpm),Sample temperature (°C),Ambient temperature (°C),ASC tube jacket temperature (°C),LED temperature (°C),Box temperature (°C),Sample RH (%),Span deviation,Mass concentration (μg/m³),Mass concentration (μg/m³),Mass concentration (μg/m³)
DateTimeUTC,F1_M11,P_M11,Q1_M11,Q2_M11,T1_M11,T2_M11,T3_M11,T4_M11,T5_M11,U1_M11,ZSPAN_M11,X0_M11,X2_M11,X1_M11
2022-05-04 03:00:00,,0820.3,5.01,0.00,25.8,24.9,00.0,35.0,27.6,26.6,-000.7,0013.25,0007.95,0007.31
2022-05-04 03:01:00,,0820.3,4.99,0.00,25.8,24.9,00.0,34.9,27.5,26.7,-000.9,0013.10,0007.94,0007.30
2022-05-04 03:02:00,,0820.3,5.02,0.00,25.8,24.9,00.0,34.9,27.5,26.7,-000.7,0012.71,0007.95,0007.27
2022-05-04 03:03:00,,0820.2,4.98,0.00,25.8,24.9,00.0,34.9,27.5,26.7,-000.8,0012.63,0007.97,0007.26
2022-05-04 03:04:00,,0820.1,5.01,0.00,25.7,24.9,00.0,34.9,27.5,26.9,-001.0,0012.12,0007.99,0007.25
2022-05-04 03:05:00,,0820.1,5.01,0.00,25.7,24.9,00.0,34.9,27.5,26.9,-001.4,0012.03,0008.03,0007.26
2022-05-04 03:06:00,,0820.2,4.99,0.00,25.7,24.9,00.0,34.9,27.5,26.7,-001.6,0012.13,0008.00,0007.26
2022-05-04 03:07:00,,0820.3,5.01,0.00,25.7,24.9,00.0,34.8,27.5,26.7,-001.7,0012.60,0008.04,0007.27
2022-05-04 03:08:00,,0820.3,5.00,0.00,25.7,24.9,00.0,34.8,27.5,26.7,-002.0,0013.01,0008.11,0007.28
2022-05-04 03:09:00,,0820.3,4.99,0.00,25.7,24.9,00.0,34.8,27.5,26.9,-002.2,0013.13,0008.19,0007.28
2022-05-04 03:10:00,,0820.3,5.01,0.00,25.7,24.9,00.0,34.8,27.4,27.4,-002.2,0013.12,0008.22,0007.30
2022-05-04 03:11:00,,0820.2,4.99,0.00,25.6,24.9,00.0,34.8,27.4,27.4,-002.3,0014.17,0008.25,0007.34
2022-05-04 03:12:00,,0820.2,5.00,0.00,25.6,24.9,00.0,34.8,27.4,27.0,-002.4,0014.25,0008.29,0007.37
2022-05-04 03:13:00,,0820.2,5.01,0.00,25.6,24.8,00.0,34.7,27.4,26.9,-002.9,0014.15,0008.30,0007.41
2022-05-04 03:14:00,,0820.2,4.99,0.00,25.6,24.8,00.0,34.7,27.4,26.9,-002.9,0014.05,0008.31,0007.45
2022-05-04 03:15:00,,0820.2,5.00,0.00,25.6,24.8,00.0,34.7,27.4,26.9,-003.2,0014.03,0008.35,0007.50
2022-05-04 03:16:00,,0820.2,5.01,0.00,25.6,24.8,00.0,34.7,27.4,26.9,-003.2,0014.05,0008.36,0007.54
2022-05-04 03:17:00,,0820.2,4.99,0.00,25.6,24.8,00.0,34.7,27.4,27.0,-003.0,0014.16,0008.42,0007.57
2022-05-04 03:18:00,,0820.2,5.01,0.00,25.6,24.8,00.0,34.7,27.3,27.1,-003.1,0013.90,0008.47,0007.61
2022-05-04 03:19:00,,0820.1,4.99,0.00,25.6,24.8,00.0,34.7,27.3,27.2,-003.0,0013.50,0008.49,0007.65
2022-05-04 03:20:00,,0820.0,5.00,0.00,25.5,24.8,00.0,34.6,27.4,27.2,-002.8,0013.47,0008.52,0007.70
2022-05-04 03:21:00,,0820.0,5.00,0.00,25.5,24.8,00.0,34.6,27.4,27.3,-002.8,0013.46,0008.55,0007.74
2022-05-04 03:22:00,,0820.0,5.01,0.00,25.5,24.8,00.0,34.6,27.4,27.4,-002.7,0013.09,0008.59,0007.77
2022-05-04 03:23:00,,0820.1,5.00,0.00,25.5,24.8,00.0,34.6,27.4,27.4,-002.2,0012.53,0008.62,0007.78
2022-05-04 03:24:00,,0820.1,5.01,0.00,25.5,24.8,00.0,34.6,27.3,27.5,-001.7,0012.58,0008.65,0007.80
2022-05-04 03:25:00,,0820.1,4.99,0.00,25.5,24.8,00.0,34.6,27.3,27.5,-001.6,0012.60,0008.66,0007.81
2022-05-04 03:26:00,,0820.1,5.01,0.00,25.5,24.8,00.0,34.6,27.3,27.5,-001.7,0012.62,0008.63,0007.80
2022-05-04 03:27:00,,0820.2,4.99,0.00,25.5,24.8,00.0,34.6,27.3,27.6,-001.2,0012.67,0008.63,0007.80
2022-05-04 03:28:00,,0820.1,5.00,0.00,25.5,24.8,00.0,34.6,27.3,27.7,-001.2,0012.65,0008.66,0007.83
2022-05-04 03:29:00,,0820.2,5.01,0.00,25.5,24.8,00.0,34.5,27.3,27.8,-001.3,0012.83,0008.65,0007.82
2022-05-04 03:30:00,,0820.1,4.99,0.00,25.5,24.8,00.0,34.5,27.3,27.8,-001.0,0013.15,0008.67,0007.84
2022-05-04 03:31:00,,0820.1,5.00,0.00,25.5,24.8,00.0,34.5,27.3,27.7,-001.2,0013.87,0008.60,0007.83
2022-05-04 03:32:00,,0820.1,5.01,0.00,25.4,24.8,00.0,34.5,27.3,27.7,-001.4,0013.92,0008.56,0007.80
2022-05-04 03:33:00,,0820.2,4.99,0.00,25.4,24.8,00.0,34.5,27.3,27.5,-001.6,0013.74,0008.46,0007.77
2022-05-04 03:34:00,,0820.2,5.01,0.00,25.4,24.8,00.0,34.5,27.2,27.4,-001.9,0013.66,0008.43,0007.72
2022-05-04 03:35:00,,0820.3,4.99,0.00,25.4,24.7,00.0,34.5,27.2,27.3,-002.2,0013.66,0008.38,0007.66
2022-05-04 03:36:00,,0820.3,5.02,0.00,25.4,24.7,00.0,34.5,27.2,27.2,-002.1,0013.55,0008.29,0007.57
2022-05-04 03:37:00,,0820.3,5.00,0.00,25.4,24.7,00.0,34.5,27.2,27.1,-001.7,0013.42,0008.18,0007.50
2022-05-04 03:38:00,,0820.3,5.00,0.00,25.4,24.7,00.0,34.5,27.2,27.0,-001.9,0013.28,0008.09,0007.40
2022-05-04 03:39:00,,0820.4,5.00,0.00,25.4,24.7,00.0,34.5,27.2,27.0,-002.4,0013.06,0007.97,0007.28
2022-05-04 03:40:00,,0820.3,5.00,0.00,25.4,24.7,00.0,34.4,27.2,26.9,-002.5,0012.89,0007.90,0007.18
2022-05-04 03:41:00,,0820.3,5.00,0.00,25.4,24.7,00.0,34.4,27.2,26.9,-002.5,0012.26,0007.73,0007.05
2022-05-04 03:42:00,,0820.3,5.01,0.00,25.4,24.7,00.0,34.4,27.2,26.8,-002.5,0011.55,0007.65,0006.93
2022-05-04 03:43:00,,0820.4,5.00,0.00,25.3,24.7,00.0,34.4,27.1,26.7,-002.4,0011.32,0007.55,0006.80
2022-05-04 03:44:00,,0820.3,5.00,0.00,25.3,24.7,00.0,34.4,27.1,26.7,-002.4,0011.16,0007.42,0006.69
2022-05-04 03:45:00,,0820.4,5.00,0.00,25.3,24.6,00.0,34.4,27.1,26.6,-002.6,0010.90,0007.24,0006.56
2022-05-04 03:46:00,,0820.4,4.99,0.00,25.3,24.6,00.0,34.4,27.1,26.7,-002.5,0010.63,0007.10,0006.47
2022-05-04 03:47:00,,0820.4,5.01,0.00,25.3,24.6,00.0,34.4,27.1,26.7,-002.6,0010.53,0007.02,0006.42
2022-05-04 03:48:00,,0820.6,5.00,0.00,25.3,24.6,00.0,34.4,27.1,26.6,-002.8,0010.59,0007.02,0006.37
2022-05-04 03:49:00,,0820.7,5.01,0.00,25.3,24.6,00.0,34.3,27.1,26.6,-002.8,0010.56,0006.97,0006.34
2022-05-04 03:50:00,,0820.9,5.00,0.00,25.3,24.6,00.0,34.3,27.1,26.6,-002.7,0010.50,0006.94,0006.32
2022-05-04 03:51:00,,0820.9,5.01,0.00,25.3,24.6,00.0,34.3,27.1,26.6,-002.3,0011.06,0006.90,0006.31
2022-05-04 03:52:00,,0821.0,4.99,0.00,25.3,24.6,00.0,34.3,27.2,26.5,-002.2,0011.17,0006.91,0006.31
2022-05-04 03:53:00,,0821.0,5.00,0.00,25.3,24.7,00.0,34.3,27.2,26.6,-002.0,0011.08,0006.89,0006.31
2022-05-04 03:54:00,,0821.0,4.99,0.00,25.3,24.7,00.0,34.4,27.2,26.5,-002.0,0011.07,0006.85,0006.33
2022-05-04 03:55:00,,0821.0,5.00,0.00,25.4,24.7,00.0,34.3,27.2,26.5,-002.2,0011.38,0006.90,0006.35
2022-05-04 03:56:00,,0821.0,5.00,0.00,25.4,24.7,00.0,34.3,27.2,26.7,-002.0,0011.39,0006.96,0006.40
2022-05-04 03:57:00,,0821.0,5.01,0.00,25.4,24.7,00.0,34.3,27.2,27.6,-001.9,0011.47,0007.04,0006.45
2022-05-04 03:58:00,,0821.1,5.00,0.00,25.4,24.7,00.0,34.4,27.2,26.9,-002.1,0011.50,0007.11,0006.52
2022-05-04 03:59:00,,0821.1,5.01,0.00,25.4,24.7,00.0,34.4,27.2,26.6,-002.2,0011.33,0007.14,0006.59
